FENGYUN 1C DEB

Satellite information

Favourite Embed

Satellite Type and Status

DEBRISIN ORBIT

Key statistics

Satellite FENGYUN 1C DEB at a glance.

Uptime

9553

Days in orbit

Revolutions

≈ 13.8

Per day

Orbit

SSO

Sun Synchronous Orbit

Inclination

98.7

Latest

Satellite identification and parameters

Extended collection of information and parameters for FENGYUN 1C DEB.

Object identification

Identified? True

Debris? True

Object name: FENGYUN 1C DEB

International designator: 1999-025CUN

Object number (NORAD): 32192

Object ID (CCSDS): 32192

Country: PEOPLES REPUBLIC OF CHINA (PRC)

Current information (Y/N): Y

RCS size: SMALL

Orbital parameters

Period: 104.169 minutes

Inclination: 98.6767 deg

SMA: 7333.651 km

Apoapsis: 1088.116 km

Periapsis: 822.916 km

RAAN: 69.3113 deg

Eccentricy: 0.018081

Argument of periapsis: 239.4708 deg

Mean anomaly: 118.8493 deg

Mean motion: 13.82363999 rev/day

Mean motion (dot): 0.00000183 rev/day2

B* drag term: 0.00018291 1/REarth

Two-line elements (TLE)

Creation date: July 4, 2025, 6:39 p.m.

Reference frame: TEME

Reference center: EARTH

Epoch: July 4, 2025, 2:39 p.m. UTC

TLE line 0: 0 FENGYUN 1C DEB

TLE line 1: 1 32192U 99025CUN 25185.61101788 .00000183 00000-0 18291-3 0 9991

TLE line 2: 2 32192 98.6767 69.3113 0180810 239.4708 118.8493 13.82363999904860

Live tracking on map

Real-time ground track for satellite FENGYUN 1C DEB.

In-orbit conjunctions

A list of the most updated potential collisions computed for object FENGYUN 1C DEB.

Target Orbit TCA Probability of collision Miss distance Type
COSMOS 1656 LEO 2025-02-09 02:22:18 0.000201969 553.0 (m) PAYLOAD
COSMOS 962 LEO 2025-01-04 18:38:40 0.0006992748 402.0 (m) PAYLOAD
COSMOS 860 LEO 2024-10-22 03:29:11 0.0005929499 342.0 (m) PAYLOAD

Associated space launch

Chinese polar orbiting meteorological satellite

FENGYUN 1C DEB was lifted into orbit during the mission ‘Long March 4B | Feng Yun 1C’, on board a Long March 4B space rocket.

The launch took place on May 10, 1999, 1:33 a.m. from Launch Complex 7.

For more information about the launch, click the button.

Launch to space Long March 4B | Feng Yun 1C
Long March 4B | Feng Yun 1C

Agency: N/A

Status: Launch Successful

Launch date: May 10, 1999, 1:33 a.m. UTC

Rocket: Long March 4B

Launch pad: Launch Complex 7

Location: Taiyuan Satellite Launch Center, People's Republic of China

...

Latest news about this satellite

There are no fresh news available about this satellite. Check back as we update our databases every day.


Newsletter sign-up

Weekly statistics, charts and insights to help you stay on top of the space industry.